Location: ??????
(38.5153°N, 23.0340°E)
Time: 23:57:54
(UTC+00:00)

Hubble Space Telescope - Pass Details

Date: 13 December 2025
Orbit: 479 x 481 km, 28.5° (Epoch: 14 January)

Event Time Altitude Azimuth Distance (km) Brightness Sun altitude
Rises 17:20:42 0° 248° (WSW) 2,525 5.5 -25.3°
Reaches altitude 10° 17:23:28 10° 227° (SW) 1,646 4.0 -25.8°
Enters shadow 17:25:31 16° 195° (SSW) 1,295 2.9 -26.2°
